Location: Moscow
(55.7500°N, 37.5830°E)
Time: 20:48:43
(UTC+03:00)

ISS - Pass Details

Date: 20 May 2021
Orbit: 417 x 422 km, 51.6° (Epoch: 16 June)

Event Time Altitude Azimuth Distance (km) Brightness Sun altitude
Rises 22:22:22 0° 258° (WSW) 2,366 0.3 -9.7°
Reaches altitude 10° 22:24:32 10° 251° (WSW) 1,503 -0.8 -9.8°
Maximum altitude 22:27:44 41° 180° (S) 622 -3.3 -10.0°
Drops below altitude 10° 22:30:56 10° 109° (ESE) 1,506 -1.4 -10.3°
Enters shadow 22:31:24 - 106° (ESE) 1,691 -1.1 -10.3°
